Tracking 29892 objects as of 21-Nov-2024
HD Live streaming from Space Station
objects crossing your sky now

IRIDIUM 33 DEB

Track IRIDIUM 33 DEB now!
10-day predictions


NORAD ID: 38020
Int'l Code: 1997-051YG
Perigee: 518.4 km
Apogee: 601.1 km
Inclination: 86.2 °
Period: 95.7 minutes
Semi major axis: 6930 km
RCS: 0.0174 m2 (small)
Launch date: September 14, 1997
Source: United States (US)
Launch site: TYURATAM MISSILE AND SPACE COMPLEX (TTMTR)

Note: This is SATELLITE DEBRIS
Your satellite tracking list
Your tracking list is empty




NASA's NSSDC Master Catalog

Two Line Element Set (TLE):
1 38020U 97051YG  24311.87268852  .00753574  00000-0  48114-1 0  9992
2 38020  86.2399 271.7529 0059678  60.1073 300.6071 15.04632615784398
Source of the keplerian elements: AFSPC